Spokane, WA

5:25 AM PST on February 24, 2017 (GMT -0800)
Spokane International

Weather History for KGEG - March, 2013

Change the Weather History Date:

Sunday, March 17, 2013

  Actual Average Record
Temperature  
Mean Temperature 38 °F 41 °F  
Max Temperature 46 °F 49 °F 70 °F (1941)
Min Temperature 30 °F 32 °F 10 °F (1965)
Degree Days  
Heating Degree Days 27 24  
Month to date heating degree days 400 454  
Since 1 July heating degree days 4937 5283  
Cooling Degree Days 0 0  
Month to date cooling degree days 0 0  
Year to date cooling degree days 0 0  
Moisture  
Dew Point 21 °F    
Average Humidity 55    
Maximum Humidity 78    
Minimum Humidity 31    
Precipitation  
Precipitation T in 0.05 in 0.70 in (1950)
Month to date precipitation 0.39 0.89  
Year to date precipitation 2.76 4.01  
Snow  
Snow T in 0.10 in 1.70 in (1975)
Month to date snowfall 0.9 2.1  
Since 1 July snowfall 43.5 42.4  
Snow Depth 0.00 in    
Sea Level Pressure  
Sea Level Pressure 29.91 in    
Wind  
Wind Speed 19 mph (WSW)    
Max Wind Speed 31 mph    
Max Gust Speed 40 mph    
Visibility 10 miles    
Events Snow    
T = Trace of Precipitation, MM = Missing Value Source: NWS Daily Summary

Daily Weather History Graph

Daily Weather History Graph

Search for Another Location

Airport or City:

Trip Planner

Search our weather history database for the weather conditions in past years. The results will help you decide how hot, cold, wet, or windy it might be!

Date:

Astronomy

Mar. 17, 2013 Rise Set
Actual Time 6:58 AM PDT 6:59 PM PDT
Civil Twilight 6:27 AM PDT 7:29 PM PDT
Nautical Twilight 5:51 AM PDT 8:05 PM PDT
Astronomical Twilight 5:14 AM PDT 8:42 PM PDT
Moon 9:51 AM PDT (3/17) 12:33 AM PDT (3/17)
Length of Visible Light 13h 02m
Length of Day
12h 00m
Waxing Crescent, 32% of the Moon is Illuminated
Mar 17
Waxing Crescent
Mar 19
First Quarter
Mar 27
Full
Apr 2
Last Quarter
Apr 10
New

Hourly Weather History & Observations

Time (PDT) Temp. Windchill Dew Point Humidity Pressure Visibility Wind Dir Wind Speed Gust Speed Precip Events Conditions
12:53 AM 34.0 °F 21.0 °F 24.1 °F 67% 29.71 in 10.0 mi WSW 26.5 mph 32.2 mph N/A   Mostly Cloudy
1:53 AM 33.1 °F 20.6 °F 21.9 °F 64% 29.73 in 10.0 mi WSW 23.0 mph 32.2 mph N/A   Scattered Clouds
2:53 AM 33.1 °F 20.1 °F 23.0 °F 66% 29.75 in 10.0 mi WSW 25.3 mph 36.8 mph N/A   Scattered Clouds
3:53 AM 32.0 °F 19.2 °F 24.1 °F 73% 29.78 in 10.0 mi SW 23.0 mph 28.8 mph N/A   Scattered Clouds
4:53 AM 30.9 °F 17.8 °F 23.0 °F 72% 29.78 in 10.0 mi SW 23.0 mph 32.2 mph N/A   Mostly Cloudy
5:53 AM 30.0 °F 17.5 °F 24.1 °F 79% 29.83 in 10.0 mi SW 19.6 mph - N/A   Mostly Cloudy
6:53 AM 30.0 °F 18.7 °F 24.1 °F 79% 29.86 in 10.0 mi SW 16.1 mph - N/A   Mostly Cloudy
7:53 AM 30.9 °F 18.4 °F 24.1 °F 76% 29.88 in 10.0 mi SW 20.7 mph - N/A   Mostly Cloudy
8:53 AM 32.0 °F 20.5 °F 24.1 °F 73% 29.91 in 10.0 mi SW 18.4 mph - N/A   Mostly Cloudy
9:53 AM 37.0 °F 26.4 °F 24.1 °F 59% 29.91 in 10.0 mi SW 20.7 mph - N/A   Scattered Clouds
10:53 AM 41.0 °F 31.1 °F 21.0 °F 45% 29.93 in 10.0 mi WSW 23.0 mph 32.2 mph N/A   Mostly Cloudy
11:53 AM 43.0 °F 33.8 °F 19.0 °F 38% 29.95 in 10.0 mi West 23.0 mph 32.2 mph N/A   Mostly Cloudy
12:53 PM 42.1 °F 33.6 °F 15.1 °F 34% 29.96 in 9.0 mi West 18.4 mph 31.1 mph N/A   Mostly Cloudy
1:53 PM 44.1 °F 35.7 °F 16.0 °F 32% 29.95 in 10.0 mi West 20.7 mph 33.4 mph 0.00 in   Mostly Cloudy
2:53 PM 42.1 °F 33.3 °F 18.0 °F 38% 29.96 in 10.0 mi West 19.6 mph 31.1 mph N/A   Mostly Cloudy
3:53 PM 44.1 °F 35.2 °F 21.0 °F 40% 29.97 in 10.0 mi WSW 23.0 mph 29.9 mph N/A   Scattered Clouds
4:53 PM 37.9 °F 28.5 °F 25.0 °F 60% 29.99 in 7.0 mi West 17.3 mph 29.9 mph 0.00 in Snow Light Snow
5:53 PM 43.0 °F 33.8 °F 17.1 °F 35% 29.97 in 10.0 mi West 23.0 mph - 0.00 in   Scattered Clouds
6:53 PM 39.0 °F 31.0 °F 19.0 °F 45% 29.99 in 10.0 mi WSW 13.8 mph - N/A   Scattered Clouds
7:53 PM 36.0 °F 28.0 °F 16.0 °F 44% 30.00 in 10.0 mi WSW 11.5 mph - N/A   Partly Cloudy
8:53 PM 35.1 °F 26.9 °F 17.1 °F 48% 30.01 in 10.0 mi WSW 11.5 mph - N/A   Partly Cloudy
9:53 PM 33.1 °F 23.9 °F 18.0 °F 54% 30.01 in 10.0 mi WSW 12.7 mph - N/A   Partly Cloudy
10:53 PM 34.0 °F 23.4 °F 17.1 °F 50% 30.01 in 10.0 mi WSW 17.3 mph - N/A   Scattered Clouds
11:53 PM 30.9 °F 20.7 °F 19.9 °F 64% 30.02 in 10.0 mi SW 13.8 mph - N/A   Mostly Cloudy